Tracking 19245 objects as of 18-Aug-2018
HD Live streaming from Space Station
objects crossing your sky now

SECOR 5 (EGRS 5)

Track SECOR 5 (EGRS 5) now!
10-day predictions
SECOR 5 (EGRS 5) is classified as:


NORAD ID: 1506
Int'l Code: 1965-063A
Perigee: 1,139.5 km
Apogee: 2,430.7 km
Inclination: 69.2 °
Period: 122.2 minutes
Semi major axis: 8156 km
RCS: 0.4268 m2 (medium)
Launch date: August 10, 1965
Source: United States (US)
Launch site: WALLOPS ISLAND (WLPIS)
aabbcc
Your satellite tracking list
Your tracking list is empty




NASA's NSSDC Master Catalog

Two Line Element Set (TLE):
1 01506U 65063A   18230.12708296 -.00000040  00000-0 -37203-4 0  9996
2 01506  69.2308 252.5503 0791534 274.1893 139.4047 11.78634985281592
Source of the keplerian elements: AFSPC